sat.trackr.live / text

‹ back to catalog

STARLINK-35568

NORAD 66473 · 2025-262T

PAYLOAD ACTIVE UNKNOWN

§ Identity

Operator
Country
US
Launch date
2025-11-15
Launch site
AFETR
Launch vehicle
Mass (kg)
RCS (m²)

Purposes: comms

External: N2YO · Heavens-Above · Gunter

§ Orbital elements

Epoch: 2026-05-24T22:35:47.701248Z

Period
94.26 min
Inclination
42.9995°
Eccentricity
0.0001029
Mean motion
15.27619107 rev/d
Perigee alt
482.2 km
Apogee alt
483.6 km
Semi-major
6,861.1 km
B*
6.9744e-4
RAAN
225.9256°
Arg perigee
280.0744°
Mean anomaly
79.9991°
Rev number
3,056

§ Raw data

STARLINK-355681 66473U 25262T   26144.94152432  .00019002  00000+0  69744-3 0  99942 66473  42.9995 225.9256 0001029 280.0744  79.9991 15.27619107 30561

JSON: /api/v1/satellites/66473 · /tle

For live sub-satellite position, see the globe view (requires WebGL).

§ Visibility from observer

Set your observer location to see the next 7 days of passes ≥ 10°. The values pass through the URL so the page stays shareable.

No JS? Fill the form by hand. The geolocation button needs JavaScript.